Overview Statistics Trail Chart Weather Telemetry Raw packets
 

This is the latest recevied weather packets stored in our database for station/object HOWARD. If no packets are shown the sender has not sent any weather packets the latest 10 day(s).

<< 58 59 60 61 62 63 64 >>
Time Temp. Humidity Pressure Rain* Wind** Luminosity Snow
1787831675 16.67° C 39% 1019 hPa 0 mm - - -
1787831075 16.67° C 38% 1019.1 hPa 0 mm - - -
1787830475 17.78° C 38% 1019.1 hPa 0 mm - - -
1787829875 17.22° C 39% 1019.2 hPa 0 mm - - -
1787829357 17.22° C 38% 1019.3 hPa 0 mm - - -
1787829275 17.22° C 38% 1019.3 hPa 0 mm - - -
1787828675 16.67° C 38% 1019.3 hPa 0 mm - - -
1787828114 17.22° C 38% 1019.3 hPa 0 mm - - -
1787828075 17.22° C 38% 1019.3 hPa 0 mm - - -
1787827475 18.33° C 37% 1019.3 hPa 0 mm - - -
1787826875 17.78° C 37% 1019.3 hPa 0 mm - - -
1787826275 17.78° C 36% 1019.2 hPa 0 mm - - -
1787825675 17.22° C 36% 1019.2 hPa 0 mm - - -
1787825146 17.22° C 35% 1019.4 hPa 0 mm - - -
1787825075 17.22° C 35% 1019.4 hPa 0 mm - - -
1787824475 17.78° C 34% 1019.3 hPa 0 mm - - -
1787823875 17.78° C 34% 1019.5 hPa 0 mm - - -
1787823275 18.33° C 34% 1019.5 hPa 0 mm - - -
1787822675 17.78° C 34% 1019.6 hPa 0 mm - - -
1787822075 18.33° C 34% 1019.7 hPa 0 mm - - -
1787821475 20° C 35% 1019.8 hPa 0 mm - - -
1787820936 17.78° C 34% 1019.8 hPa 0 mm - - -
1787820875 17.78° C 34% 1019.8 hPa 0 mm - - -
1787820280 17.78° C 34% 1020 hPa 0 mm - - -
1787819675 18.33° C 34% 1020 hPa 0 mm - - -

* Rain latest hour (hover to see other rain measurements)
** Current wind speed in m/s (hover to see current wind gust speed)